Time,TemperatureF,DewpointF,PressureIn,WindDirection,WindDirectionDegrees,WindSpeedMPH,WindSpeedGustMPH,Humidity,HourlyPrecipIn,Conditions,Clouds,dailyrainin,SoftwareType,DateUTC
2013-09-16 00:14:00,83.0,79.0,29.98,ENE,74,8.0,14.0,88,0.00,,,0.00,,2013-09-16 04:14:00,
2013-09-16 00:24:00,83.0,79.0,29.99,ENE,63,7.0,12.0,87,0.00,,,0.00,,2013-09-16 04:24:00,
2013-09-16 00:54:00,83.0,78.0,29.98,East,92,7.0,18.0,85,0.00,,,0.00,,2013-09-16 04:54:00,
2013-09-16 01:22:00,83.0,77.0,29.97,ENE,71,11.0,16.0,82,0.00,,,0.00,,2013-09-16 05:22:00,
2013-09-16 01:53:00,83.0,77.0,29.96,ENE,66,7.0,13.0,83,0.00,,,0.00,,2013-09-16 05:53:00,
2013-09-16 02:22:00,83.0,78.0,29.95,ENE,68,6.0,12.0,85,0.00,,,0.00,,2013-09-16 06:22:00,
2013-09-16 02:52:00,82.0,77.0,29.93,East,92,7.0,14.0,86,0.00,,,0.00,,2013-09-16 06:52:00,
2013-09-16 03:12:00,82.0,78.0,29.93,ENE,72,7.0,14.0,87,0.00,,,0.00,,2013-09-16 07:12:00,
2013-09-16 03:22:00,83.0,79.0,29.94,East,92,7.0,13.0,87,0.00,,,0.00,,2013-09-16 07:22:00,
2013-09-16 03:52:00,83.0,79.0,29.94,NE,46,8.0,16.0,87,0.00,,,0.00,,2013-09-16 07:52:00,
2013-09-16 04:22:00,81.0,76.0,29.93,NE,53,14.0,22.0,85,0.00,,,0.00,,2013-09-16 08:22:00,
2013-09-16 04:52:00,80.0,77.0,29.91,ENE,72,9.0,13.0,90,0.00,,,0.00,,2013-09-16 08:52:00,
2013-09-16 05:22:00,81.0,78.0,29.91,ENE,72,8.0,14.0,92,0.00,,,0.00,,2013-09-16 09:22:00,
2013-09-16 05:53:00,81.0,78.0,29.91,ENE,72,12.0,16.0,92,0.00,,,0.00,,2013-09-16 09:53:00,
2013-09-16 06:23:00,81.0,78.0,29.93,ENE,66,10.0,15.0,91,0.00,,,0.00,,2013-09-16 10:23:00,
2013-09-16 06:53:00,82.0,79.0,29.95,East,92,10.0,16.0,90,0.00,,,0.00,,2013-09-16 10:53:00,
2013-09-16 07:22:00,82.0,79.0,29.94,NE,50,12.0,16.0,90,0.00,,,0.00,,2013-09-16 11:22:00,
2013-09-16 07:52:00,82.0,79.0,29.95,East,92,5.0,13.0,90,0.00,,,0.00,,2013-09-16 11:52:00,
2013-09-16 08:22:00,82.0,78.0,29.95,East,92,11.0,14.0,87,0.00,,,0.00,,2013-09-16 12:22:00,
2013-09-16 08:52:00,81.0,75.0,29.96,ENE,63,10.0,19.0,83,0.00,,,0.00,,2013-09-16 12:52:00,
2013-09-16 09:22:00,79.0,73.0,29.96,East,92,13.0,25.0,83,0.00,,,0.00,,2013-09-16 13:22:00,
2013-09-16 09:52:00,79.0,74.0,29.97,East,92,6.0,11.0,86,0.02,,,0.02,,2013-09-16 13:52:00,
2013-09-16 10:22:00,78.0,74.0,29.98,East,92,2.0,8.0,89,0.07,,,0.07,,2013-09-16 14:22:00,
2013-09-16 10:52:00,78.0,75.0,30.01,North,1,8.0,16.0,92,0.11,,,0.13,,2013-09-16 14:52:00,
2013-09-16 11:22:00,76.0,74.0,30.02,NE,45,6.0,22.0,93,0.07,,,0.14,,2013-09-16 15:22:00,
2013-09-16 11:53:00,76.0,74.0,30.01,NNW,348,7.0,14.0,93,0.02,,,0.15,,2013-09-16 15:53:00,
2013-09-16 12:23:00,76.0,74.0,30.03,East,92,10.0,19.0,94,0.22,,,0.36,,2013-09-16 16:23:00,
2013-09-16 12:52:00,75.0,73.0,30.04,ENE,72,6.0,22.0,94,0.35,,,0.50,,2013-09-16 16:52:00,
2013-09-16 13:23:00,74.0,72.0,30.01,ENE,65,1.0,12.0,94,0.27,,,0.63,,2013-09-16 17:23:00,
2013-09-16 13:53:00,75.0,73.0,29.97,North,360,4.0,8.0,95,0.18,,,0.68,,2013-09-16 17:53:00,
2013-09-16 14:22:00,75.0,73.0,29.95,ENE,63,0.0,6.0,95,0.08,,,0.71,,2013-09-16 18:22:00,
2013-09-16 14:52:00,75.0,74.0,29.92,NE,53,4.0,9.0,96,0.04,,,0.72,,2013-09-16 18:52:00,
2013-09-16 15:22:00,76.0,75.0,29.91,East,92,10.0,14.0,96,0.01,,,0.72,,2013-09-16 19:22:00,
2013-09-16 15:53:00,76.0,75.0,29.91,ENE,66,1.0,10.0,96,0.00,,,0.72,,2013-09-16 19:53:00,
2013-09-16 16:22:00,77.0,76.0,29.91,NE,44,2.0,5.0,96,0.00,,,0.72,,2013-09-16 20:22:00,
2013-09-16 16:52:00,78.0,76.0,29.91,North,1,1.0,9.0,95,0.00,,,0.72,,2013-09-16 20:52:00,
2013-09-16 17:22:00,79.0,77.0,29.91,NE,39,1.0,6.0,95,0.00,,,0.72,,2013-09-16 21:22:00,
2013-09-16 17:56:00,79.0,77.0,29.91,North,360,0.0,7.0,94,0.00,,,0.72,,2013-09-16 21:56:00,
2013-09-16 18:24:00,80.0,78.0,29.91,North,360,1.0,7.0,93,0.00,,,0.72,,2013-09-16 22:24:00,
2013-09-16 18:54:00,80.0,77.0,29.91,North,10,6.0,11.0,92,0.00,,,0.72,,2013-09-16 22:54:00,
2013-09-16 19:22:00,80.0,77.0,29.92,North,5,8.0,11.0,92,0.00,,,0.72,,2013-09-16 23:22:00,
2013-09-16 19:53:00,79.0,76.0,29.94,North,5,7.0,12.0,92,0.00,,,0.72,,2013-09-16 23:53:00,
2013-09-16 20:22:00,80.0,78.0,29.95,North,5,9.0,13.0,93,0.00,,,0.72,,2013-09-17 00:22:00,
2013-09-16 20:52:00,80.0,78.0,29.94,NNW,347,9.0,12.0,93,0.00,,,0.72,,2013-09-17 00:52:00,
2013-09-16 21:11:00,80.0,78.0,29.94,NNE,15,10.0,13.0,93,0.00,,,0.72,,2013-09-17 01:11:00,
2013-09-16 21:21:00,80.0,78.0,29.94,NNE,13,9.0,12.0,93,0.00,,,0.72,,2013-09-17 01:21:00,
2013-09-16 21:52:00,80.0,78.0,29.94,North,8,7.0,12.0,93,0.00,,,0.72,,2013-09-17 01:52:00,
2013-09-16 22:22:00,80.0,78.0,29.93,North,359,8.0,15.0,93,0.00,,,0.72,,2013-09-17 02:22:00,
2013-09-16 22:42:00,80.0,78.0,29.94,North,351,9.0,15.0,93,0.00,,,0.72,,2013-09-17 02:42:00,
2013-09-16 22:53:00,80.0,78.0,29.93,North,7,7.0,13.0,93,0.00,,,0.72,,2013-09-17 02:53:00,
2013-09-16 23:23:00,80.0,78.0,29.94,North,7,2.0,7.0,93,0.00,,,0.72,,2013-09-17 03:23:00,
2013-09-16 23:54:00,80.0,78.0,29.93,North,6,4.0,10.0,93,0.00,,,0.72,,2013-09-17 03:54:00,